Overview Statistics Trail Chart Weather Telemetry Raw packets
 

This is the latest recevied weather packets stored in our database for station/object R8AHC-W1. If no packets are shown the sender has not sent any weather packets the latest 10 day(s).

<< 1 2 3 4 >>
Time Temp. Humidity Pressure Rain* Wind** Luminosity Snow
1778186222 13.33° C 94% 1010 hPa - 4.02 m/s, 330° - -
1778179022 14.44° C 82% 1011 hPa - 0 m/s - -
1778171822 15.56° C 82% 1011 hPa - 4.02 m/s, 210° - -
1778157422 23.89° C 35% 1010 hPa - 4.92 m/s, 170° - -
1778153823 23.33° C 35% 1011 hPa - 1.79 m/s, 90° - -
1778146622 23.33° C 38% 1011 hPa - 3.13 m/s, 190° - -
1778139422 22.22° C 43% 1011 hPa - 0 m/s - -
1778135822 21.67° C 43% 1012 hPa - 1.79 m/s, 230° - -
1778125022 14.44° C 72% 1011 hPa - 0.89 m/s, 40° - -
1778117823 13.33° C 93% 1012 hPa - 1.79 m/s, 330° - -
1778114222 12.78° C 93% 1011 hPa - 4.02 m/s, 340° - -
1778110622 12.22° C 93% 1011 hPa - 4.02 m/s, 350° - -
1778107022 11.67° C 93% 1011 hPa - 3.13 m/s, 350° - -
1778103422 11.11° C 93% 1011 hPa - 1.79 m/s, 20° - -
1778099822 10.56° C 93% 1011 hPa - 1.79 m/s, 360° - -
1778092622 11.67° C 87% 1011 hPa - 1.79 m/s, 10° - -
1778085423 14.44° C 72% 1012 hPa - 0.89 m/s, 130° - -
1778078222 20° C 37% 1012 hPa - 4.02 m/s, 150° - -
1778074622 19.44° C 37% 1012 hPa - 4.92 m/s, 160° - -
1778067422 22.22° C 24% 1013 hPa - 4.02 m/s, 110° - -
1778056622 20.56° C 34% 1014 hPa - 4.02 m/s, 110° - -
1778049422 19.44° C 34% 1014 hPa - 4.92 m/s, 150° - -
1778042222 11.67° C 71% 1015 hPa - 1.79 m/s, 210° - -
1778038623 11.11° C 71% 1015 hPa - 1.79 m/s, 190° - -
1778035022 10.56° C 71% 1015 hPa - 1.79 m/s, 190° - -

* Rain since midnight (hover to see other rain measurements)
** Current wind speed in m/s (hover to see current wind gust speed)